TimeCEST,TemperatureF,Dew PointF,Humidity,Sea Level PressureIn,VisibilityMPH,Wind Direction,Wind SpeedMPH,Gust SpeedMPH,PrecipitationIn,Events,Conditions,WindDirDegrees,DateUTC
2:00 AM,58,54,82,29.95,,ENE,6.7,,,,,60,2013-09-11 00:00:00
4:45 AM,57.2,55.4,94,29.92,6.2,ENE,5.8,-,N/A,,Overcast,70,2013-09-11 02:45:00
5:45 AM,57.2,55.4,94,29.92,6.2,ENE,3.5,-,N/A,,Overcast,70,2013-09-11 03:45:00
6:02 AM,57.2,53.6,88,29.92,-9999.0,ENE,2.3,-,N/A,,Unknown,60,2013-09-11 04:02:00
6:15 AM,57.2,55.4,94,29.92,5.0,East,2.3,-,N/A,Rain,Light Rain,80,2013-09-11 04:15:00
6:45 AM,57.2,55.4,94,29.92,3.1,Calm,Calm,-,N/A,Rain,Light Rain,0,2013-09-11 04:45:00
7:00 AM,-9999,-9999,N/A,-9999,5.0,East,6.9,-,N/A,Rain,Light Rain,80,2013-09-11 05:00:00
7:15 AM,57.2,55.4,94,29.92,2.5,Calm,Calm,-,N/A,Rain,Rain,0,2013-09-11 05:15:00
7:17 AM,57.2,55.4,94,29.92,2.5,ENE,3.5,-,N/A,Rain,Rain,70,2013-09-11 05:17:00
7:45 AM,57.2,55.4,94,29.92,-9999.0,East,2.3,-,N/A,Rain,Light Rain,90,2013-09-11 05:45:00
8:00 AM,57,55,92,29.92,3,East,2.2,,,Rain,Light Rain,90,2013-09-11 06:00:00
8:15 AM,57.2,55.4,94,29.92,-9999.0,ESE,5.8,-,N/A,Rain,Light Rain,110,2013-09-11 06:15:00
8:45 AM,59.0,57.2,94,29.92,3.1,NE,2.3,-,N/A,,Overcast,50,2013-09-11 06:45:00
8:47 AM,59.0,57.2,94,29.92,3.7,East,3.5,-,N/A,,Overcast,80,2013-09-11 06:47:00
9:15 AM,59.0,57.2,94,29.92,4.3,SSE,2.3,-,N/A,,Overcast,150,2013-09-11 07:15:00
9:45 AM,60.8,57.2,88,29.92,4.3,East,2.3,-,N/A,,Overcast,80,2013-09-11 07:45:00
9:49 AM,60.8,57.2,88,29.92,4.3,Calm,Calm,-,N/A,,Overcast,0,2013-09-11 07:49:00
10:00 AM,-9999,-9999,N/A,-9999,5.0,East,6.9,-,N/A,,Overcast,80,2013-09-11 08:00:00
10:15 AM,60.8,59.0,94,29.92,4.3,East,3.5,-,N/A,,Mostly Cloudy,100,2013-09-11 08:15:00
10:45 AM,62.6,59.0,88,29.92,4.3,East,4.6,-,N/A,,Mostly Cloudy,100,2013-09-11 08:45:00
11:15 AM,64.4,60.8,88,29.92,5.0,ESE,3.5,-,N/A,,Mostly Cloudy,110,2013-09-11 09:15:00
11:45 AM,66.2,60.8,83,29.92,5.0,East,4.6,-,N/A,,Mostly Cloudy,100,2013-09-11 09:45:00
12:15 PM,66.2,60.8,83,29.92,6.2,ESE,5.8,-,N/A,,Mostly Cloudy,120,2013-09-11 10:15:00
12:45 PM,66.2,60.8,83,29.92,6.2,ESE,6.9,-,N/A,,Mostly Cloudy,120,2013-09-11 10:45:00
1:00 PM,-9999,-9999,N/A,-9999,6.2,East,6.9,-,N/A,,Mostly Cloudy,100,2013-09-11 11:00:00
1:15 PM,66.2,60.8,83,29.92,6.2,ESE,6.9,-,N/A,,Mostly Cloudy,110,2013-09-11 11:15:00
1:45 PM,68.0,60.8,78,29.92,6.2,ENE,4.6,-,N/A,,Mostly Cloudy,70,2013-09-11 11:45:00
2:00 PM,67,60,72,29.91,12,ENE,4.5,,,,Partly Cloudy,70,2013-09-11 12:00:00
2:15 PM,68.0,60.8,78,29.92,6.2,East,1.2,-,N/A,,Mostly Cloudy,100,2013-09-11 12:15:00
2:45 PM,69.8,60.8,73,29.92,6.2,East,2.3,-,N/A,,Scattered Clouds,100,2013-09-11 12:45:00
3:15 PM,69.8,59.0,68,29.92,6.2,South,2.3,-,N/A,,Scattered Clouds,170,2013-09-11 13:15:00
3:45 PM,69.8,60.8,73,29.92,6.2,ESE,2.3,-,N/A,,Scattered Clouds,110,2013-09-11 13:45:00
4:15 PM,69.8,60.8,73,29.92,6.2,West,5.8,-,N/A,,Mostly Cloudy,260,2013-09-11 14:15:00
4:45 PM,68.0,60.8,78,29.92,6.2,West,10.4,-,N/A,,Scattered Clouds,280,2013-09-11 14:45:00
5:15 PM,66.2,59.0,78,29.92,6.2,WNW,12.7,-,N/A,,Scattered Clouds,290,2013-09-11 15:15:00
5:45 PM,66.2,59.0,78,29.92,6.2,WNW,9.2,-,N/A,,Mostly Cloudy,290,2013-09-11 15:45:00
6:15 PM,66.2,59.0,78,29.92,6.2,WNW,10.4,-,N/A,,Partly Cloudy,290,2013-09-11 16:15:00
6:45 PM,64.4,59.0,83,29.92,6.2,West,5.8,-,N/A,,Scattered Clouds,270,2013-09-11 16:45:00
7:15 PM,64.4,57.2,77,29.95,6.2,West,8.1,-,N/A,,Scattered Clouds,270,2013-09-11 17:15:00
7:45 PM,62.6,57.2,82,29.95,6.2,West,10.4,-,N/A,,Scattered Clouds,260,2013-09-11 17:45:00
8:00 PM,63,58,78,29.94,7,West,11.2,,,,Partly Cloudy,260,2013-09-11 18:00:00
8:15 PM,62.6,57.2,82,29.95,6.2,West,9.2,-,N/A,,Scattered Clouds,260,2013-09-11 18:15:00
8:45 PM,62.6,55.4,77,29.95,6.2,West,8.1,-,N/A,,Mostly Cloudy,260,2013-09-11 18:45:00
9:00 PM,-9999,-9999,N/A,-9999,-9999.0,North,-9999.0,-,N/A,,Unknown,0,2013-09-11 19:00:00